Location: Bucharest
(44.4268°N, 26.1025°E)
Time: 19:17:38
(UTC+03:00)

CUTE 1.7 + AOD 2 - Pass Details

Date: 30 June 2022
Orbit: 589 x 608 km, 97.7° (Epoch: 10 August)

Event Time Altitude Azimuth Distance (km) Brightness Sun altitude
Rises 04:54:45 0° 16° (NNE) 2,854 ? -6.4°
Reaches altitude 10° 04:56:58 10° 21° (NNE) 1,943 ? -6.1°
Maximum altitude 05:01:08 56° 100° (E) 708 ? -5.5°
Drops below altitude 10° 05:05:13 10° 179° (S) 1,917 ? -5.0°
Sets 05:07:24 0° 184° (S) 2,811 ? -4.7°
